Hourly Data Report for December 27, 2020

FORT GOOD HOPE CS
NORTHWEST TERRITORIES
Current Station Operator: ECCC - MSC

66°14'32.044" N
128°38'39.081" W
81.70 m
2201450
71491
ZGH

Download Data

Hourly Data (December 2020)
Hourly Data Report for December 27, 2020
TIME
LST
Temp Definition
°C
Dew Point Definition
°C
Rel Hum Definition
%
Precip. Amount Definition
mm

Wind Dir Definition
10's deg

Wind Spd Definition
km/h
Visibility Definition
km
Stn Press Definition
kPa
Hmdx Definition


Wind Chill Definition


Weather Definition


00:00 -22.0 -24.6 79 0.0   0   99.58     LegendNANA
01:00 -22.9 -25.6 79 0.0 0 1   99.66   -24 LegendNANA
02:00 -22.6 -25.1 80 0.0 30 3   99.72   -25 LegendNANA
03:00 -24.4 -27.2 78 0.0 19 2   99.76   -26 LegendNANA
04:00 -23.5 -26.3 78 0.0 22 5   99.80   -28 LegendNANA
05:00 -23.8 -26.6 78 0.0 22 5   99.83   -29 LegendNANA
06:00 -24.9 -27.8 77 0.0 19 5   99.82   -30 LegendNANA
07:00 -23.2 -25.8 79 0.0 22 5   99.86   -28 LegendNANA
08:00 -22.5 -25.2 79 0.0 21 4   99.86   -26 LegendNANA
09:00 -21.9 -24.6 79 0.0 21 6   99.85   -27 LegendNANA
10:00 -22.8 -25.4 79 0.0 24 3   99.89   -26 LegendNANA
11:00 -23.3 -26.0 78 0.0 22 1   99.93   -24 LegendNANA
12:00 -22.2 -24.9 79 0.0 21 4   99.95   -26 LegendNANA
13:00 -22.1 -24.8 79 0.0 23 4   99.99   -26 LegendNANA
14:00 -22.5 -25.1 79 0.0 18 3   99.96   -25 LegendNANA
15:00 -20.6 -23.1 80 0.0 21 4   100.00   -24 LegendNANA
16:00 -20.1 -22.5 81 0.0 22 4   99.98   -24 LegendNANA
17:00 -19.8 -22.2 81 0.0 24 4   99.99   -23 LegendNANA
18:00 -19.6 -21.9 81 0.0 26 5   99.99   -24 LegendNANA
19:00 -19.8 -22.2 81 0.0 25 5   99.99   -24 LegendNANA
20:00 -20.8 -23.3 80 0.0 22 5   100.01   -25 LegendNANA
21:00 -21.8 -24.4 80 0.0 1 3   99.99   -25 LegendNANA
22:00 -24.2 -26.9 78 0.0   0   99.97     LegendNANA
23:00 -23.7 -26.5 78 0.0 0 1   100.00   -25 LegendNANA

Notes on Data Quality.

Legend

  • E = Estimated
  • M = Missing
  • NA = Not Available*
  • [empty] = Indicates an unobserved value
Date modified: